Aberdeen, SD

5:32 AM CDT on May 27, 2018 (GMT -0500)
Aberdeen Regional

Weather History for KABR - September, 2014

Change the Weather History Date:

Thursday, September 18, 2014

  Actual Average Record
Temperature  
Mean Temperature 62 °F 58 °F  
Max Temperature 80 °F 71 °F 95 °F (2000)
Min Temperature 43 °F 45 °F 22 °F (1896)
Degree Days  
Heating Degree Days 3 8  
Month to date heating degree days 159 97  
Since 1 July heating degree days 221 148  
Cooling Degree Days 0 1  
Month to date cooling degree days 5 34  
Year to date cooling degree days 309 517  
Growing Degree Days 11 (Base 50)    
Moisture  
Dew Point 54 °F    
Average Humidity 77    
Maximum Humidity 100    
Minimum Humidity 54    
Precipitation  
Precipitation 0.00 in 0.07 in 1.64 in (1988)
Month to date precipitation 0.22 1.34  
Year to date precipitation 15.85 17.63  
Sea Level Pressure  
Sea Level Pressure 29.89 in    
Wind  
Wind Speed 12 mph (SSE)    
Max Wind Speed 25 mph    
Max Gust Speed 32 mph    
Visibility 10 miles    
Events      
T = Trace of Precipitation, MM = Missing Value Source: NWS Daily Summary

Daily Weather History Graph

Daily Weather History Graph

Search for Another Location

Airport or City:

Astronomy

Sep. 18, 2014 Rise Set
Actual Time 7:15 AM CDT 7:38 PM CDT
Civil Twilight 6:46 AM CDT 8:08 PM CDT
Nautical Twilight 6:11 AM CDT 8:43 PM CDT
Astronomical Twilight 5:35 AM CDT 9:19 PM CDT
Moon 1:57 AM CDT (9/18) 4:41 PM CDT (9/18)
Length of Visible Light 13h 22m
Length of Day
12h 23m
Waning Crescent, 26% of the Moon is Illuminated
Sep 18
Waning Crescent
Sep 24
New
Oct 1
First Quarter
Oct 8
Full
Oct 15
Last Quarter

Hourly Weather History & Observations

Time (CDT) Temp. Windchill Dew Point Humidity Pressure Visibility Wind Dir Wind Speed Gust Speed Precip Events Conditions
12:53 AM 48.0 °F - 46.9 °F 96% 29.99 in 10.0 mi Calm Calm - N/A   Clear
1:53 AM 48.0 °F - 46.0 °F 93% 29.99 in 10.0 mi NNE 4.6 mph - N/A   Clear
2:53 AM 46.0 °F 44.8 °F 45.0 °F 96% 29.99 in 10.0 mi NE 3.5 mph - N/A   Clear
3:53 AM 44.6 °F 43.1 °F 44.6 °F 100% 29.98 in 10.0 mi North 3.5 mph - N/A   Clear
4:53 AM 44.1 °F 42.5 °F 44.1 °F 100% 29.97 in 10.0 mi North 3.5 mph - N/A   Clear
5:53 AM 44.1 °F 42.5 °F 44.1 °F 100% 29.96 in 10.0 mi North 3.5 mph - N/A   Clear
6:53 AM 42.8 °F - 42.8 °F 100% 29.96 in 10.0 mi Calm Calm - N/A   Clear
7:53 AM 45.0 °F - 44.1 °F 97% 29.97 in 10.0 mi Calm Calm - N/A   Clear
8:53 AM 52.0 °F - 48.9 °F 89% 29.97 in - North - - N/A   Clear
9:53 AM - - - N/A% 29.95 in 10.0 mi SSE 9.2 mph - N/A   Clear
10:53 AM 66.9 °F - 57.9 °F 73% 29.94 in 10.0 mi South 10.4 mph - N/A   Clear
11:53 AM 73.0 °F - 59.0 °F 61% 29.91 in 10.0 mi SSE 15.0 mph - N/A   Clear
12:53 PM 75.0 °F - 61.0 °F 62% 29.90 in 10.0 mi South 15.0 mph 24.2 mph N/A   Partly Cloudy
1:53 PM 77.0 °F - 62.1 °F 60% 29.87 in 10.0 mi South 21.9 mph 28.8 mph N/A   Mostly Cloudy
2:53 PM 78.1 °F - 62.1 °F 58% 29.85 in 10.0 mi South 19.6 mph 26.5 mph N/A   Clear
3:53 PM 78.1 °F - 62.1 °F 58% 29.83 in 10.0 mi South 21.9 mph 29.9 mph N/A   Scattered Clouds
4:53 PM 78.1 °F - 61.0 °F 56% 29.81 in 10.0 mi South 19.6 mph 27.6 mph N/A   Clear
5:53 PM 75.9 °F - 60.1 °F 58% 29.81 in 10.0 mi South 18.4 mph 27.6 mph N/A   Clear
6:53 PM 73.0 °F - 61.0 °F 66% 29.80 in 10.0 mi South 12.7 mph - N/A   Clear
7:53 PM 69.1 °F - 60.1 °F 73% 29.78 in 10.0 mi South 10.4 mph - N/A   Clear
8:53 PM 69.1 °F - 57.0 °F 65% 29.78 in 10.0 mi South 16.1 mph 24.2 mph N/A   Clear
9:53 PM 68.0 °F - 57.0 °F 68% 29.78 in 10.0 mi South 16.1 mph - N/A   Clear
10:53 PM 66.0 °F - 57.0 °F 73% 29.75 in 10.0 mi South 16.1 mph 23.0 mph N/A   Clear
11:53 PM 66.0 °F - 57.0 °F 73% 29.75 in 10.0 mi South 16.1 mph - N/A   Clear